Regional Weather Roundup
Issued by NWS

Home | Current Version | Previous Version | Text Only | Print | Product List | Glossary Off
Versions: 1 2 3 4 5 6 7 8 9 10 11 12 13 14 15 16 17 18 19 20 21 22 23 24 25 26 27 28 29 30 31 32 33 34 35 36 37 38 39 40 41 42 43 44 45 46 47 48 49 50

000
ASUS43 KLMK 021610
RWRKY
KENTUCKY REGIONAL WEATHER ROUNDUP
NATIONAL WEATHER SERVICE LOUISVILLE KY
1100 AM EST MON MAR 02 2015

NOTE "FAIR" INDICATES FEW OR NO CLOUDS BELOW 12,000 FEET
WITH NO SIGNIFICANT WEATHER AND/OR OBSTRUCTIONS TO VISIBILITY.

KYZ001>023-026-027-061>063-070>075-021700-
WESTERN AND SOUTH CENTRAL KENTUCKY

CITY           SKY/WX    TMP DP  RH WIND       PRES   REMARKS
PADUCAH        SUNNY     32  19  58 E12       30.52F WCI  23
HENDERSON      SUNNY     30  18  59 NE12      30.55S WCI  21
OWENSBORO      MOSUNNY   31  19  61 E9        30.55F WCI  23
HOPKINSVILLE   SUNNY     33  22  63 NE10      30.52R WCI  25
BOWLING GREEN  MOSUNNY   35  25  66 NE10      30.52F WCI  27
GLASGOW        MOSUNNY   34  26  72 NE12      30.50F WCI  26
$$

KYZ024-025-028>034-038-045-046-053-021700-
NORTH CENTRAL KENTUCKY

CITY           SKY/WX    TMP DP  RH WIND       PRES   REMARKS
LOUISVILLE/SDF PTSUNNY   32  16  51 NE7       30.54F WCI  26
LOUISVILLE/LOU MOSUNNY   31  16  54 E3        30.54F
FORT KNOX      MOSUNNY   31  19  60 N8        30.50S WCI  24
$$

KYZ035>037-039>044-047>052-055>060-089>105-021700-
NORTHEAST KENTUCKY

CITY           SKY/WX    TMP DP  RH WIND       PRES   REMARKS
LEXINGTON      SUNNY     30  20  66 N7        30.51F WCI  23
COVINGTON      PTSUNNY   29  15  56 N8        30.52S WCI  21
FRANKFORT      SUNNY     31  17  56 NE5       30.52S WCI  26
$$

KYZ054-064>069-076>088-106>120-021700-
SOUTHEAST KENTUCKY

CITY           SKY/WX    TMP DP  RH WIND       PRES   REMARKS
JACKSON        MOSUNNY   35  24  64 VRB3      30.46F
LONDON         MOSUNNY   36  26  67 VRB6      30.46F WCI  31
SOMERSET       SUNNY     34  27  75 NE5       30.50F WCI  30
MIDDLESBORO    NOT AVBL
MONTICELLO     MOSUNNY   37  29  73 NE10      30.52S WCI  30
$$




USA.gov is the U.S. government's official web portal to all federal, state and local government web resources and services.